sat.trackr.live / text

‹ back to catalog

GPS BIIRM-8 (PRN 05)

NORAD 35752 · 2009-043A

PAYLOAD ACTIVE UNKNOWN

§ Identity

Operator
Country
US
Launch date
2009-08-17
Launch site
AFETR
Launch vehicle
Mass (kg)
RCS (m²)
6.30

Purposes: nav

External: N2YO · Heavens-Above · Gunter

§ Orbital elements

Epoch: 2026-05-24T22:34:55.824096Z

Period
718.01 min
Inclination
56.1962°
Eccentricity
0.0053517
Mean motion
2.00555530 rev/d
Perigee alt
20,040.8 km
Apogee alt
20,325.1 km
Semi-major
26,561.1 km
B*
0.0000e+0
RAAN
28.3646°
Arg perigee
82.2594°
Mean anomaly
100.2405°
Rev number
12,289

§ Raw data

GPS BIIRM-8 (PRN 05)1 35752U 09043A   26144.94092389 -.00000108  00000+0  00000+0 0  99972 35752  56.1962  28.3646 0053517  82.2594 100.2405  2.00555530122892

JSON: /api/v1/satellites/35752 · /tle

For live sub-satellite position, see the globe view (requires WebGL).

§ Visibility from observer

Set your observer location to see the next 7 days of passes ≥ 10°. The values pass through the URL so the page stays shareable.

No JS? Fill the form by hand. The geolocation button needs JavaScript.